Date String (YYYY-MM-DD hh:mm:ss) UTC,Instrument flags,Ambient pressure (hPa),Sample flow (lpm),Bypass flow (lpm),Sample temperature (°C),Ambient temperature (°C),ASC tube jacket temperature (°C),LED temperature (°C),Box temperature (°C),Sample RH (%),Span deviation,Mass concentration (μg/m³),Mass concentration (μg/m³),Mass concentration (μg/m³)
DateTimeUTC,F1_M11,P_M11,Q1_M11,Q2_M11,T1_M11,T2_M11,T3_M11,T4_M11,T5_M11,U1_M11,ZSPAN_M11,X2_M11,X0_M11,X1_M11
2022-02-03 14:00:00,,0827.1,5.00,0.00,21.8,20.9,00.0,31.0,23.0,03.1,0002.5,0006.60,0009.35,0006.30
2022-02-03 14:01:00,,0827.1,4.99,0.00,21.8,21.2,00.0,31.0,23.0,03.1,0002.0,0006.62,0009.34,0006.32
2022-02-03 14:02:00,,0827.1,5.00,0.00,21.9,21.6,00.0,31.0,23.3,03.2,0001.2,0006.65,0009.36,0006.34
2022-02-03 14:03:00,,0827.1,5.02,0.00,22.0,22.1,00.0,31.0,23.5,03.2,0000.3,0006.68,0009.46,0006.34
2022-02-03 14:04:00,,0827.1,4.99,0.00,22.1,22.5,00.0,31.0,23.7,03.2,0000.2,0006.70,0009.43,0006.35
2022-02-03 14:05:00,,0827.1,5.01,0.00,22.2,22.9,00.0,31.1,23.9,03.2,0000.0,0006.71,0009.37,0006.36
2022-02-03 14:06:00,,0827.1,4.99,0.00,22.3,23.1,00.0,31.1,24.0,03.1,0000.0,0006.70,0009.30,0006.37
2022-02-03 14:07:00,,0827.1,5.00,0.00,22.2,22.5,00.0,31.1,23.8,03.1,0000.2,0006.72,0009.33,0006.37
2022-02-03 14:08:00,,0827.1,5.02,0.00,22.1,21.8,00.0,31.1,23.4,03.2,0000.0,0006.75,0009.39,0006.39
2022-02-03 14:09:00,,0827.1,5.00,0.00,21.9,21.1,00.0,31.0,23.1,03.2,0001.1,0006.77,0009.55,0006.41
2022-02-03 14:10:00,,0827.1,4.99,0.00,21.7,20.8,00.0,31.0,22.9,03.3,0001.0,0006.80,0009.59,0006.43
2022-02-03 14:11:00,,0827.1,5.01,0.00,21.8,21.4,00.0,31.0,23.1,03.3,0000.9,0006.80,0009.54,0006.44
2022-02-03 14:12:00,,0827.2,5.00,0.00,21.9,21.9,00.0,31.0,23.4,03.3,0001.8,0006.80,0009.54,0006.45
2022-02-03 14:13:00,,0827.1,5.00,0.00,22.0,22.4,00.0,31.0,23.6,03.3,0003.0,0006.80,0009.52,0006.45
2022-02-03 14:14:00,,0827.2,4.99,0.00,22.1,22.8,00.0,31.0,23.8,03.3,0003.6,0006.83,0009.52,0006.49
2022-02-03 14:15:00,,0827.6,5.01,0.00,22.2,23.0,00.0,31.1,23.9,03.3,0003.3,0006.85,0009.50,0006.53
2022-02-03 14:16:00,,0827.5,5.00,0.00,22.3,23.2,00.0,31.1,24.0,03.3,0003.2,0006.89,0009.56,0006.56
2022-02-03 14:17:00,,0827.7,5.01,0.00,22.3,22.7,00.0,31.1,23.8,03.3,0003.0,0006.93,0009.63,0006.60
2022-02-03 14:18:00,,0827.6,4.99,0.00,22.1,21.9,00.0,31.1,23.4,03.3,0002.1,0006.96,0009.91,0006.62
2022-02-03 14:19:00,,0827.3,5.00,0.00,21.9,21.1,00.0,31.0,23.1,03.4,0001.5,0006.95,0010.23,0006.62
2022-02-03 14:20:00,,0827.3,4.98,0.00,21.7,20.8,00.0,31.0,22.8,03.5,0001.3,0006.95,0010.11,0006.63
2022-02-03 14:21:00,,0827.3,5.01,0.00,21.8,21.3,00.0,31.0,23.1,03.5,0001.4,0006.98,0010.13,0006.65
2022-02-03 14:22:00,,0827.2,5.00,0.00,21.9,22.0,00.0,31.0,23.4,03.5,0001.0,0007.00,0010.14,0006.67
2022-02-03 14:23:00,,0827.2,4.99,0.00,22.0,22.6,00.0,31.0,23.7,03.5,0001.1,0007.02,0010.14,0006.69
2022-02-03 14:24:00,,0827.3,5.01,0.00,22.1,23.0,00.0,31.1,23.9,03.5,0001.1,0007.05,0010.18,0006.71
2022-02-03 14:25:00,,0827.3,5.00,0.00,22.3,23.3,00.0,31.1,24.0,03.4,0000.6,0007.04,0010.20,0006.70
2022-02-03 14:26:00,,0827.2,5.01,0.00,22.2,22.8,00.0,31.1,23.8,03.5,0000.7,0007.02,0010.19,0006.68
2022-02-03 14:27:00,,0827.3,4.99,0.00,22.1,22.0,00.0,31.1,23.4,03.5,0000.9,0007.01,0010.20,0006.67
2022-02-03 14:28:00,,0827.3,4.99,0.00,21.9,21.3,00.0,31.0,23.1,03.6,0000.7,0007.02,0010.21,0006.67
2022-02-03 14:29:00,,0827.3,4.99,0.00,21.7,21.0,00.0,31.0,22.9,03.7,0000.7,0007.01,0010.11,0006.67
2022-02-03 14:30:00,,0827.3,5.01,0.00,21.8,21.6,00.0,31.0,23.1,03.7,0000.0,0007.01,0009.57,0006.69
2022-02-03 14:31:00,,0827.4,5.01,0.00,21.9,22.3,00.0,31.0,23.4,03.7,0000.0,0007.06,0009.61,0006.71
2022-02-03 14:32:00,,0827.4,5.00,0.00,22.0,23.0,00.0,31.0,23.7,03.7,0000.0,0007.09,0009.63,0006.74
2022-02-03 14:33:00,,0827.4,5.00,0.00,22.1,23.1,00.0,31.1,23.8,03.8,0001.7,0007.10,0009.65,0006.76
2022-02-03 14:34:00,,0827.3,5.00,0.00,22.0,22.3,00.0,31.0,23.5,03.8,0000.6,0007.11,0009.71,0006.77
2022-02-03 14:35:00,,0827.4,5.01,0.00,21.9,21.6,00.0,31.0,23.2,03.8,0000.5,0007.12,0009.72,0006.77
2022-02-03 14:36:00,,0827.4,4.99,0.00,21.7,21.0,00.0,30.9,22.9,03.9,0000.8,0007.13,0009.70,0006.81
2022-02-03 14:37:00,,0827.4,4.99,0.00,21.7,21.3,00.0,30.9,23.0,04.0,0000.7,0007.17,0009.90,0006.86
2022-02-03 14:38:00,,0827.4,5.00,0.00,21.8,22.2,00.0,30.9,23.3,04.0,0000.8,0007.23,0009.95,0006.92
2022-02-03 14:39:00,,0827.4,5.01,0.00,21.9,22.9,00.0,31.0,23.7,04.0,0001.4,0007.27,0009.97,0006.97
2022-02-03 14:40:00,,0827.5,5.00,0.00,22.1,23.3,00.0,31.0,23.9,04.0,0001.7,0007.34,0010.04,0007.02
2022-02-03 14:41:00,,0827.5,4.99,0.00,22.1,22.8,00.0,31.0,23.7,04.1,0002.2,0007.40,0010.12,0007.08
2022-02-03 14:42:00,,0827.5,4.99,0.00,22.0,22.1,00.0,31.0,23.4,04.1,0001.8,0007.43,0010.14,0007.12
2022-02-03 14:43:00,,0827.5,5.01,0.00,21.8,21.6,00.0,31.0,23.2,04.1,0001.7,0007.46,0010.17,0007.16
2022-02-03 14:44:00,,0827.5,5.02,0.00,21.7,21.2,00.0,30.9,23.0,04.2,0001.5,0007.51,0010.27,0007.19
2022-02-03 14:45:00,,0827.5,5.00,0.00,21.7,21.5,00.0,30.9,23.1,04.3,0001.8,0007.57,0010.33,0007.24
2022-02-03 14:46:00,,0827.6,4.99,0.00,21.8,22.4,00.0,30.9,23.4,04.3,0001.9,0007.59,0010.33,0007.28
2022-02-03 14:47:00,,0827.6,5.00,0.00,22.0,23.1,00.0,31.0,23.8,04.3,0002.1,0007.64,0010.35,0007.33
2022-02-03 14:48:00,,0827.6,5.00,0.00,22.1,23.1,00.0,31.0,23.8,04.3,0002.6,0007.66,0010.24,0007.34
2022-02-03 14:49:00,,0827.5,5.01,0.00,22.1,22.5,00.0,31.0,23.6,04.3,0002.5,0007.67,0010.26,0007.34
2022-02-03 14:50:00,,0827.5,4.99,0.00,21.9,21.9,00.0,31.0,23.2,04.4,0001.8,0007.68,0010.32,0007.34
2022-02-03 14:51:00,,0827.5,5.01,0.00,21.7,21.4,00.0,30.9,23.0,04.5,0000.7,0007.65,0010.32,0007.32
2022-02-03 14:52:00,,0827.6,5.00,0.00,21.7,21.8,00.0,30.9,23.1,04.6,0000.5,0007.62,0010.27,0007.30
2022-02-03 14:53:00,,0827.6,5.01,0.00,21.9,22.6,00.0,31.0,23.5,04.6,0000.6,0007.61,0010.24,0007.30
2022-02-03 14:54:00,,0827.6,5.00,0.00,22.1,23.3,00.0,31.0,23.8,04.6,0001.0,0007.60,0010.25,0007.29
2022-02-03 14:55:00,,0827.5,4.99,0.00,22.1,23.2,00.0,31.0,23.9,04.6,0001.4,0007.57,0010.19,0007.28
2022-02-03 14:56:00,,0827.5,5.00,0.00,22.1,22.6,00.0,31.0,23.6,04.6,0001.8,0007.54,0010.12,0007.27
2022-02-03 14:57:00,,0827.5,5.00,0.00,21.9,22.1,00.0,31.0,23.3,04.7,0001.8,0007.54,0010.10,0007.27
2022-02-03 14:58:00,,0827.6,5.00,0.00,21.8,21.6,00.0,31.0,23.1,04.8,0001.6,0007.54,0010.12,0007.26
2022-02-03 14:59:00,,0827.6,4.99,0.00,21.7,21.4,00.0,30.9,23.0,04.8,0001.4,0007.52,0010.10,0007.23
